Location: Aalen
(48.8330°N, 10.1000°E)
Time: 18:53:34
(UTC+02:00)

Transit 4A - Pass Details

Date: 01 August 2021
Orbit: 871 x 974 km, 66.8° (Epoch: 16 September)

Event Time Altitude Azimuth Distance (km) Brightness Sun altitude
Rises 05:54:38 0° 309° (NW) 3,468 10.7 -0.6°
Reaches altitude 10° 05:58:41 10° 336° (NNW) 2,529 10.3 0.0°
Maximum altitude 06:01:22 13° 4° (N) 2,306 10.5 0.4°
Drops below altitude 10° 06:04:05 10° 32° (NNE) 2,537 11.3 0.8°
Sets 06:08:08 0° 59° (ENE) 3,488 14.1 1.4°
